Cumberland, WI

1:22 AM CST on December 09, 2016 (GMT -0600)
Cumberland Municipal

Weather History for KUBE - September, 2012

Change the Weather History Date:

Wednesday, September 19, 2012

  Actual Average (KRPD) Record (KRPD)
Temperature  
Mean Temperature 50 °F -  
Max Temperature 66 °F 65 °F 87 °F (1998)
Min Temperature 35 °F 45 °F 37 °F (2010)
Degree Days  
Heating Degree Days 14    
Moisture  
Dew Point 39 °F    
Average Humidity 62    
Maximum Humidity 82    
Minimum Humidity 43    
Precipitation  
Precipitation 0.01 in - - ()
Sea Level Pressure  
Sea Level Pressure 29.74 in    
Wind  
Wind Speed 8 mph (SW)    
Max Wind Speed 30 mph    
Max Gust Speed 40 mph    
Visibility 10 miles    
Events Rain , Thunderstorm    
Averages and records for this station are not official NWS values.
T = Trace of Precipitation, MM = Missing Value Source: NWS Daily Summary

Daily Weather History Graph

Daily Weather History Graph

Search for Another Location

Airport or City:

Trip Planner

Search our weather history database for the weather conditions in past years. The results will help you decide how hot, cold, wet, or windy it might be!

Date:

Astronomy

Sep. 19, 2012 Rise Set
Actual Time 6:51 AM CDT 7:10 PM CDT
Civil Twilight 6:22 AM CDT 7:39 PM CDT
Nautical Twilight 5:47 AM CDT 8:14 PM CDT
Astronomical Twilight 5:11 AM CDT 8:50 PM CDT
Moon 11:17 AM CDT (9/19) 9:03 PM CDT (9/19)
Length of Visible Light 13h 17m
Length of Day
12h 18m
Waxing Crescent, 17% of the Moon is Illuminated
Sep 19
Waxing Crescent
Sep 22
First Quarter
Sep 29
Full
Oct 8
Last Quarter
Oct 15
New

Hourly Weather History & Observations

Time (CDT) Temp. Windchill Dew Point Humidity Pressure Visibility Wind Dir Wind Speed Gust Speed Precip Events Conditions
12:15 AM 35.6 °F - 30.2 °F 81% 29.90 in 10.0 mi Calm Calm - N/A   Overcast
12:35 AM 37.4 °F - 32.0 °F 81% 29.89 in 10.0 mi Calm Calm - N/A   Overcast
12:55 AM 37.4 °F - 32.0 °F 81% 29.89 in 10.0 mi Calm Calm - N/A   Mostly Cloudy
1:15 AM 41.0 °F - 32.0 °F 70% 29.89 in 10.0 mi Calm Calm - N/A   Mostly Cloudy
1:35 AM 41.0 °F 39.0 °F 32.0 °F 70% 29.88 in 10.0 mi SE 3.5 mph - N/A   Overcast
1:55 AM 41.0 °F 39.0 °F 32.0 °F 70% 29.89 in 10.0 mi SSE 3.5 mph - N/A   Overcast
2:15 AM 42.8 °F 40.1 °F 32.0 °F 66% 29.88 in 10.0 mi SSE 4.6 mph - N/A   Overcast
2:35 AM 44.6 °F 42.2 °F 32.0 °F 61% 29.86 in 10.0 mi South 4.6 mph - N/A   Overcast
2:55 AM 44.6 °F 41.4 °F 32.0 °F 61% 29.86 in 10.0 mi SSE 5.8 mph - N/A   Overcast
3:15 AM 44.6 °F 40.7 °F 30.2 °F 57% 29.84 in 10.0 mi SSE 6.9 mph - N/A   Overcast
3:35 AM 44.6 °F 40.7 °F 30.2 °F 57% 29.85 in 10.0 mi SSE 6.9 mph - N/A   Overcast
3:55 AM 46.4 °F 41.9 °F 30.2 °F 53% 29.82 in 10.0 mi SSE 9.2 mph - N/A   Overcast
4:15 AM 46.4 °F 41.5 °F 30.2 °F 53% 29.81 in 10.0 mi South 10.4 mph 16.1 mph N/A   Overcast
4:35 AM 46.4 °F 41.1 °F 28.4 °F 50% 29.80 in 10.0 mi South 11.5 mph 17.3 mph N/A   Overcast
4:55 AM 46.4 °F 41.1 °F 30.2 °F 53% 29.79 in 10.0 mi South 11.5 mph 19.6 mph N/A   Overcast
5:15 AM 48.2 °F - 30.2 °F 50% 29.77 in 10.0 mi South 10.4 mph 20.7 mph N/A   Mostly Cloudy
5:55 AM 48.2 °F - 30.2 °F 50% 29.74 in 10.0 mi South 15.0 mph 25.3 mph N/A   Mostly Cloudy
6:15 AM 48.2 °F - 30.2 °F 50% 29.71 in 10.0 mi South 17.3 mph 24.2 mph N/A   Scattered Clouds
6:35 AM 48.2 °F - 30.2 °F 50% 29.71 in 10.0 mi South 12.7 mph 23.0 mph N/A   Scattered Clouds
6:55 AM 48.2 °F - 32.0 °F 54% 29.70 in 10.0 mi South 12.7 mph 19.6 mph N/A   Clear
7:15 AM 48.2 °F - 32.0 °F 54% 29.71 in 10.0 mi South 13.8 mph - N/A   Scattered Clouds
8:15 AM 48.2 °F - 32.0 °F 54% 29.71 in 10.0 mi South 6.9 mph - N/A   Scattered Clouds
8:35 AM 50.0 °F - 32.0 °F 50% 29.71 in 10.0 mi SSW 6.9 mph - N/A   Mostly Cloudy
8:55 AM 51.8 °F - 33.8 °F 50% 29.72 in 10.0 mi South 6.9 mph - N/A   Overcast
9:15 AM 50.0 °F - 37.4 °F 62% 29.74 in 10.0 mi SW 5.8 mph - N/A Rain Light Rain
9:35 AM 50.0 °F - 41.0 °F 71% 29.71 in 10.0 mi South 5.8 mph - N/A Rain Rain
9:55 AM 50.0 °F - 41.0 °F 71% 29.70 in 10.0 mi SSW 10.4 mph - N/A Rain Light Rain
10:15 AM 48.2 °F - 42.8 °F 82% 29.65 in 10.0 mi SSE 9.2 mph - 0.01 in   Mostly Cloudy
10:35 AM 51.8 °F - 42.8 °F 71% 29.64 in 10.0 mi South 11.5 mph - 0.01 in   Scattered Clouds
10:55 AM 53.6 °F - 42.8 °F 67% 29.65 in 10.0 mi South 13.8 mph 17.3 mph 0.01 in   Mostly Cloudy
11:15 AM 55.4 °F - 42.8 °F 63% 29.62 in 10.0 mi South 11.5 mph 19.6 mph N/A   Mostly Cloudy
11:35 AM 59.0 °F - 42.8 °F 55% 29.61 in 10.0 mi South 10.4 mph - N/A   Scattered Clouds
11:55 AM 59.0 °F - 42.8 °F 55% 29.64 in 10.0 mi SW 9.2 mph - N/A   Scattered Clouds
12:15 PM 60.8 °F - 42.8 °F 52% 29.65 in 10.0 mi WSW 10.4 mph - N/A   Scattered Clouds
12:35 PM 60.8 °F - 42.8 °F 52% 29.65 in 10.0 mi SW 15.0 mph 25.3 mph N/A   Scattered Clouds
12:55 PM 62.6 °F - 42.8 °F 48% 29.65 in 10.0 mi WSW 15.0 mph 21.9 mph N/A   Mostly Cloudy
1:15 PM 62.6 °F - 42.8 °F 48% 29.65 in 10.0 mi SW 13.8 mph 20.7 mph N/A   Mostly Cloudy
1:35 PM 62.6 °F - 42.8 °F 48% 29.65 in 10.0 mi SW 12.7 mph 21.9 mph N/A   Scattered Clouds
1:55 PM 64.4 °F - 42.8 °F 45% 29.65 in 10.0 mi SW 12.7 mph - N/A   Mostly Cloudy
2:15 PM 64.4 °F - 42.8 °F 45% 29.65 in 10.0 mi WSW 15.0 mph 21.9 mph N/A   Mostly Cloudy
2:35 PM 66.2 °F - 42.8 °F 43% 29.64 in 10.0 mi WSW 12.7 mph 20.7 mph N/A   Scattered Clouds
3:15 PM 64.4 °F - 42.8 °F 45% 29.62 in 10.0 mi SW 11.5 mph - N/A Thunderstorm Scattered Clouds
3:35 PM 64.4 °F - 42.8 °F 45% 29.61 in 10.0 mi SW 13.8 mph 20.7 mph N/A Thunderstorm Mostly Cloudy
3:55 PM 64.4 °F - 44.6 °F 49% 29.62 in 10.0 mi WSW 16.1 mph 25.3 mph N/A   Mostly Cloudy
4:15 PM 66.2 °F - 42.8 °F 43% 29.62 in 10.0 mi West 13.8 mph 21.9 mph N/A   Scattered Clouds
4:35 PM 57.2 °F - 41.0 °F 55% 29.67 in 10.0 mi NNW 29.9 mph 40.3 mph N/A   Mostly Cloudy
4:55 PM 51.8 °F - 42.8 °F 71% 29.69 in 10.0 mi NW 17.3 mph 25.3 mph N/A Rain , Thunderstorm Light Thunderstorms and Rain
5:15 PM 53.6 °F - 44.6 °F 72% 29.70 in 10.0 mi NW 16.1 mph - N/A Thunderstorm Mostly Cloudy
5:35 PM 53.6 °F - 44.6 °F 72% 29.71 in 10.0 mi NW 12.7 mph 23.0 mph N/A   Scattered Clouds
5:55 PM 53.6 °F - 46.4 °F 77% 29.71 in 10.0 mi NW 15.0 mph 19.6 mph N/A Rain Light Rain
6:15 PM 55.4 °F - 46.4 °F 72% 29.72 in 10.0 mi NW 11.5 mph - N/A   Scattered Clouds
6:35 PM 53.6 °F - 44.6 °F 72% 29.73 in 10.0 mi NW 8.1 mph - N/A   Clear
6:55 PM 53.6 °F - 44.6 °F 72% 29.74 in 10.0 mi West 6.9 mph - N/A   Clear
7:15 PM 51.8 °F - 44.6 °F 76% 29.74 in 10.0 mi WNW 11.5 mph 16.1 mph N/A   Clear
7:35 PM 53.6 °F - 42.8 °F 67% 29.75 in 10.0 mi NW 15.0 mph - N/A   Clear
7:55 PM 51.8 °F - 42.8 °F 71% 29.76 in 10.0 mi WNW 9.2 mph - N/A   Scattered Clouds
8:15 PM 53.6 °F - 42.8 °F 67% 29.77 in 10.0 mi WNW 12.7 mph 18.4 mph N/A Rain Rain
8:35 PM 51.8 °F - 42.8 °F 71% 29.78 in 10.0 mi WNW 12.7 mph - N/A   Mostly Cloudy
8:55 PM 50.0 °F - 42.8 °F 76% 29.78 in 10.0 mi WNW 8.1 mph - N/A   Scattered Clouds
9:15 PM 50.0 °F - 42.8 °F 76% 29.79 in 10.0 mi West 6.9 mph - N/A   Scattered Clouds
9:35 PM 50.0 °F - 42.8 °F 76% 29.79 in 10.0 mi West 10.4 mph 16.1 mph N/A   Mostly Cloudy
9:55 PM 50.0 °F - 42.8 °F 76% 29.79 in 10.0 mi West 10.4 mph - N/A   Scattered Clouds
10:15 PM 51.8 °F - 42.8 °F 71% 29.80 in 10.0 mi West 10.4 mph 20.7 mph N/A   Mostly Cloudy
10:35 PM 51.8 °F - 41.0 °F 67% 29.79 in 10.0 mi West 11.5 mph - N/A   Mostly Cloudy
10:55 PM 50.0 °F - 41.0 °F 71% 29.79 in 10.0 mi West 8.1 mph - N/A   Mostly Cloudy
11:15 PM 50.0 °F - 41.0 °F 71% 29.79 in 10.0 mi West 6.9 mph - N/A   Overcast
11:55 PM 46.4 °F 42.9 °F 41.0 °F 81% 29.78 in 10.0 mi WSW 6.9 mph - N/A   Clear